| time (UTC) | temp C | wind direction | speed KPH | gust KPH | rain 1hr cm | rain 24hr cm | rain mn cm | humidity % | barometer mb |
| 20260505024203 | 13 | 179 | 3.2 | 11.3 | 0.00 | 0.00 | 0.00 | 70 | 1009.7 |
| 20260505023703 | 13 | 176 | 3.2 | 11.3 | 0.00 | 0.00 | 0.00 | 69 | 1009.6 |
| 20260505022705 | 13 | 177 | 3.2 | 4.8 | 0.00 | 0.00 | 0.00 | 68 | 1009.6 |
| 20260505022203 | 13 | 177 | 3.2 | 4.8 | 0.00 | 0.00 | 0.00 | 68 | 1009.6 |
| 20260505021703 | 13 | 176 | 3.2 | 4.8 | 0.00 | 0.00 | 0.00 | 67 | 1009.7 |
| 20260505021205 | 13 | 175 | 3.2 | 8.0 | 0.00 | 0.00 | 0.00 | 67 | 1009.7 |
| 20260505015705 | 13 | 175 | 3.2 | 4.8 | 0.00 | 0.00 | 0.00 | 65 | 1009.5 |
| 20260505015203 | 13 | 174 | 4.8 | 11.3 | 0.00 | 0.00 | 0.00 | 65 | 1009.5 |
| 20260505014205 | 13 | 170 | 3.2 | 8.0 | 0.00 | 0.00 | 0.00 | 64 | 1009.6 |
| 20260505013204 | 14 | 180 | 3.2 | 9.7 | 0.00 | 0.00 | 0.00 | 63 | 1009.3 |
| 20260505012204 | 14 | 178 | 4.8 | 9.7 | 0.00 | 0.00 | 0.00 | 62 | 1009.3 |
| 20260505004704 | 15 | 175 | 3.2 | 4.8 | 0.00 | 0.00 | 0.00 | 58 | 1008.7 |
| 20260505003205 | 15 | 167 | 8.0 | 22.5 | 0.00 | 0.00 | 0.00 | 57 | 1008.4 |
| 20260505002204 | 16 | 179 | 3.2 | 8.0 | 0.00 | 0.00 | 0.00 | 56 | 1008.1 |
| 20260505001206 | 16 | 169 | 6.4 | 14.5 | 0.00 | 0.00 | 0.00 | 55 | 1007.7 |
| 20260505000204 | 16 | 208 | 6.4 | 19.3 | 0.00 | 0.00 | 0.00 | 54 | 1007.6 |
| 20260504235703 | 16 | 222 | 3.2 | 11.3 | 0.00 | 0.00 | 0.00 | 54 | 1007.5 |
| 20260504235203 | 16 | 228 | 4.8 | 12.9 | 0.00 | 0.00 | 0.00 | 53 | 1007.5 |
| 20260504232704 | 17 | 186 | 6.4 | 16.1 | 0.00 | 0.00 | 0.00 | 52 | 1007.0 |
| 20260504232205 | 17 | 0 | 6.4 | 14.5 | 0.00 | 0.00 | 0.00 | 51 | 1006.9 |
| 20260504230707 | 18 | 0 | 6.4 | 16.1 | 0.00 | 0.00 | 0.00 | 50 | 1006.8 |
| 20260504225703 | 18 | 0 | 6.4 | 14.5 | 0.00 | 0.00 | 0.00 | 50 | 1006.6 |
| 20260504224704 | 18 | 0 | 9.7 | 19.3 | 0.00 | 0.00 | 0.00 | 49 | 1006.5 |
| 20260504224203 | 19 | 0 | 8.0 | 19.3 | 0.00 | 0.00 | 0.00 | 49 | 1006.5 |
| 20260504223704 | 19 | 0 | 4.8 | 20.9 | 0.00 | 0.00 | 0.00 | 49 | 1006.4 |
| 20260504223204 | 19 | 0 | 8.0 | 16.1 | 0.00 | 0.00 | 0.00 | 48 | 1006.4 |
| 20260504222204 | 20 | 184 | 9.7 | 22.5 | 0.00 | 0.00 | 0.00 | 47 | 1006.2 |
| 20260504221706 | 20 | 171 | 8.0 | 16.1 | 0.00 | 0.00 | 0.00 | 46 | 1006.2 |
| 20260504220703 | 20 | 203 | 6.4 | 24.1 | 0.00 | 0.00 | 0.00 | 44 | 1006.2 |
| 20260504215706 | 20 | 216 | 11.3 | 22.5 | 0.00 | 0.00 | 0.00 | 44 | 1006.2 |
| 20260504215204 | 20 | 187 | 8.0 | 29.0 | 0.00 | 0.00 | 0.00 | 44 | 1006.1 |
| 20260504214203 | 20 | 232 | 8.0 | 19.3 | 0.00 | 0.00 | 0.00 | 43 | 1006.1 |
| 20260504213205 | 20 | 182 | 9.7 | 35.4 | 0.00 | 0.00 | 0.00 | 42 | 1006.2 |
| 20260504212705 | 21 | 176 | 9.7 | 22.5 | 0.00 | 0.00 | 0.00 | 41 | 1006.1 |
| 20260504212204 | 21 | 204 | 8.0 | 19.3 | 0.00 | 0.00 | 0.00 | 41 | 1006.1 |
| 20260504210205 | 22 | 229 | 8.0 | 24.1 | 0.00 | 0.00 | 0.00 | 37 | 1005.9 |
| 20260504205204 | 22 | 265 | 9.7 | 24.1 | 0.00 | 0.00 | 0.00 | 37 | 1005.7 |
| 20260504203704 | 22 | 198 | 9.7 | 20.9 | 0.00 | 0.00 | 0.00 | 36 | 1005.8 |
| 20260504203204 | 22 | 206 | 9.7 | 19.3 | 0.00 | 0.00 | 0.00 | 36 | 1005.8 |
| 20260504202704 | 22 | 228 | 4.8 | 19.3 | 0.00 | 0.00 | 0.00 | 36 | 1005.7 |
| 20260504195704 | 22 | 229 | 4.8 | 14.5 | 0.00 | 0.00 | 0.00 | 36 | 1006.1 |
| 20260504194705 | 22 | 180 | 11.3 | 24.1 | 0.00 | 0.00 | 0.00 | 34 | 1006.1 |
| 20260504194205 | 22 | 177 | 14.5 | 29.0 | 0.00 | 0.00 | 0.00 | 33 | 1005.9 |
| 20260504193704 | 22 | 174 | 6.4 | 16.1 | 0.00 | 0.00 | 0.00 | 35 | 1006.1 |
| 20260504193205 | 22 | 173 | 8.0 | 25.7 | 0.00 | 0.00 | 0.00 | 34 | 1006.0 |
| 20260504192705 | 22 | 221 | 6.4 | 24.1 | 0.00 | 0.00 | 0.00 | 35 | 1006.0 |
| 20260504185706 | 23 | 165 | 6.4 | 16.1 | 0.00 | 0.00 | 0.00 | 33 | 1006.1 |
| 20260504183705 | 23 | 271 | 4.8 | 11.3 | 0.00 | 0.00 | 0.00 | 35 | 1006.2 |
| 20260504182205 | 23 | 201 | 8.0 | 22.5 | 0.00 | 0.00 | 0.00 | 34 | 1006.3 |
| 20260504181204 | 22 | 255 | 8.0 | 24.1 | 0.00 | 0.00 | 0.00 | 34 | 1006.8 |
| 20260504180204 | 22 | 190 | 8.0 | 19.3 | 0.00 | 0.00 | 0.00 | 35 | 1006.6 |
| 20260504175706 | 22 | 178 | 11.3 | 29.0 | 0.00 | 0.00 | 0.00 | 34 | 1006.8 |
| 20260504175205 | 22 | 193 | 9.7 | 20.9 | 0.00 | 0.00 | 0.00 | 34 | 1006.9 |
| 20260504173705 | 22 | 176 | 9.7 | 29.0 | 0.00 | 0.00 | 0.00 | 35 | 1006.7 |
| 20260504172204 | 22 | 178 | 8.0 | 22.5 | 0.00 | 0.00 | 0.00 | 34 | 1006.8 |
| 20260504171705 | 22 | 261 | 8.0 | 19.3 | 0.00 | 0.00 | 0.00 | 35 | 1006.8 |
| 20260504150705 | 17 | 278 | 9.7 | 33.8 | 0.00 | 0.00 | 0.00 | 43 | 1008.3 |
| 20260504140704 | 16 | 189 | 9.7 | 19.3 | 0.00 | 0.00 | 0.00 | 47 | 1008.9 |
| 20260504140205 | 16 | 193 | 8.0 | 19.3 | 0.00 | 0.00 | 0.00 | 49 | 1008.9 |
| 20260504130707 | 13 | 217 | 3.2 | 14.5 | 0.00 | 0.00 | 0.00 | 54 | 1009.5 |
| 20260504120204 | 10 | 215 | 3.2 | 4.8 | 0.00 | 0.00 | 0.00 | 61 | 1010.0 |
| 20260504110704 | 8 | 0 | 3.2 | 8.0 | 0.00 | 0.00 | 0.00 | 64 | 1009.8 |
| 20260504110205 | 7 | 340 | 3.2 | 9.7 | 0.00 | 0.00 | 0.00 | 64 | 1009.7 |
| 20260504081205 | 7 | 291 | 1.6 | 3.2 | 0.00 | 0.00 | 0.00 | 63 | 1009.3 |
| 20260504070205 | 6 | 285 | 1.6 | 4.8 | 0.00 | 0.00 | 0.00 | 64 | 1009.1 |
| 20260504050705 | 5 | 330 | 1.6 | 4.8 | 0.00 | 0.00 | 0.00 | 71 | 1009.5 |
| 20260504044704 | 4 | 275 | 0.0 | 1.6 | 0.00 | 0.00 | 0.00 | 72 | 1009.5 |
| 20260504044204 | 4 | 275 | 1.6 | 3.2 | 0.00 | 0.00 | 0.00 | 72 | 1009.5 |
| 20260504042204 | 5 | 275 | 1.6 | 1.6 | 0.00 | 0.00 | 0.00 | 70 | 1009.2 |
| 20260504040205 | 5 | 274 | 1.6 | 3.2 | 0.00 | 0.00 | 0.00 | 69 | 1009.1 |
| 20260504035705 | 5 | 326 | 0.0 | 3.2 | 0.00 | 0.00 | 0.00 | 69 | 1009.1 |
| 20260504034706 | 5 | 275 | 1.6 | 3.2 | 0.00 | 0.00 | 0.00 | 67 | 1009.1 |
| 20260504034205 | 5 | 275 | 1.6 | 3.2 | 0.00 | 0.00 | 0.00 | 67 | 1009.0 |
| 20260504032706 | 5 | 274 | 1.6 | 3.2 | 0.00 | 0.00 | 0.00 | 66 | 1009.0 |
| 20260504031205 | 5 | 274 | 1.6 | 4.8 | 0.00 | 0.00 | 0.00 | 67 | 1008.8 |
| 20260504025204 | 5 | 274 | 0.0 | 3.2 | 0.00 | 0.00 | 0.00 | 66 | 1008.8 |